WA6MEM Weather Reports


Display with metric or nautical units.
time (UTC)temp
F
wind
direction
speed
MPH
gust
MPH
rain 1hr
in
rain 24hr
in
rain mn
in
humidity
%
barometer
mb
20260504045547 53 256 1.0 0.0 0.00 0.00 0.00 90 1013.6
20260504045048 53 188 1.0 0.0 0.00 0.00 0.00 90 1013.6
20260504044547 54 199 1.0 0.0 0.00 0.00 0.00 91 1013.6
20260504044047 54 167 1.0 0.0 0.00 0.00 0.00 90 1013.6
20260504043548 54 220 1.0 0.0 0.00 0.00 0.00 90 1013.6
20260504043055 54 160 1.0 0.0 0.00 0.00 0.00 90 1013.6
20260504042548 54 204 1.0 0.0 0.00 0.00 0.00 90 1013.5
20260504042046 54 213 1.0 0.0 0.00 0.00 0.00 90 1013.5
20260504041546 54 268 1.0 0.0 0.00 0.00 0.00 89 1013.5
20260504041046 54 183 1.0 0.0 0.00 0.00 0.00 89 1013.4
20260504040546 54 188 1.0 0.0 0.00 0.00 0.00 89 1013.4
20260504040046 54 183 2.0 0.0 0.00 0.00 0.00 88 1013.4
20260504035546 54 192 2.0 0.0 0.00 0.00 0.00 88 1013.1
20260504035046 54 173 2.0 0.0 0.00 0.00 0.00 88 1013.1
20260504034548 54 238 2.0 0.0 0.00 0.00 0.00 88 1013.1
20260504034045 54 198 2.0 0.0 0.00 0.00 0.00 88 1013.0
20260504033548 54 243 1.0 0.0 0.00 0.00 0.00 88 1013.0
20260504033045 54 203 1.0 0.0 0.00 0.00 0.00 88 1013.0
20260504032545 54 200 1.0 0.0 0.00 0.00 0.00 88 1012.6
20260504032048 54 229 1.0 0.0 0.00 0.00 0.00 88 1012.6
20260504031545 54 255 2.0 0.0 0.00 0.00 0.00 88 1012.6
20260504031044 54 238 3.0 0.0 0.00 0.00 0.00 88 1012.5
20260504030544 54 222 3.0 0.0 0.00 0.00 0.00 88 1012.5
20260504030045 54 208 2.0 0.0 0.00 0.00 0.00 88 1012.5
20260504025544 54 243 2.0 0.0 0.00 0.00 0.00 88 1012.5
20260504025044 54 191 2.0 0.0 0.00 0.00 0.00 88 1012.5
20260504024548 54 184 2.0 0.0 0.00 0.00 0.00 88 1012.5
20260504024046 54 185 2.0 0.0 0.00 0.00 0.00 87 1012.5
20260504023543 54 202 2.0 0.0 0.00 0.00 0.00 87 1012.5
20260504023044 55 186 3.0 0.0 0.00 0.00 0.00 87 1012.5
20260504022544 55 267 3.0 0.0 0.00 0.00 0.00 87 1012.4
20260504022043 55 221 3.0 0.0 0.00 0.00 0.00 86 1012.4
20260504021543 55 196 3.0 0.0 0.00 0.00 0.00 86 1012.4
20260504021042 55 229 3.0 0.0 0.00 0.00 0.00 86 1012.3
20260504020545 55 237 2.0 0.0 0.00 0.00 0.00 85 1012.3
20260504020122 55 212 2.0 0.0 0.00 0.00 0.00 85 1012.3
20260504015542 55 223 3.0 0.0 0.00 0.00 0.00 85 1012.1
20260504015044 55 202 3.0 0.0 0.00 0.00 0.00 85 1012.1
20260504014557 56 276 3.0 0.0 0.00 0.00 0.00 84 1012.1
20260504014041 56 215 2.0 0.0 0.00 0.00 0.00 84 1012.0
20260504013541 56 184 3.0 0.0 0.00 0.00 0.00 84 1012.0
20260504013053 56 188 3.0 0.0 0.00 0.00 0.00 83 1012.0
20260504012541 56 159 3.0 0.0 0.00 0.00 0.00 81 1012.0
20260504012042 57 204 4.0 0.0 0.00 0.00 0.00 80 1012.0
20260504011543 57 184 4.0 0.0 0.00 0.00 0.00 79 1012.0
20260504011041 57 191 3.0 0.0 0.00 0.00 0.00 79 1011.9
20260504010541 58 228 4.0 0.0 0.00 0.00 0.00 77 1011.9
20260504010044 58 205 3.0 0.0 0.00 0.00 0.00 76 1011.9
20260504005540 59 230 2.0 0.0 0.00 0.00 0.00 73 1011.8
20260504005040 59 187 3.0 0.0 0.00 0.00 0.00 72 1011.8
20260504004602 59 194 3.0 0.0 0.00 0.00 0.00 73 1011.8
20260504004040 59 185 3.0 0.0 0.00 0.00 0.00 73 1011.8
20260504003539 59 186 3.0 0.0 0.00 0.00 0.00 75 1011.8
20260504003048 59 205 3.0 0.0 0.00 0.00 0.00 75 1011.8
20260504002539 59 171 3.0 0.0 0.00 0.00 0.00 78 1011.8
20260504002039 58 259 3.0 0.0 0.00 0.00 0.00 80 1011.8
20260504001607 59 282 3.0 0.0 0.00 0.00 0.00 79 1011.8
20260504001039 58 212 3.0 0.0 0.00 0.00 0.00 80 1011.4
20260504000538 58 266 4.0 0.0 0.00 0.00 0.00 81 1011.4
20260504000044 58 279 3.0 0.0 0.00 0.00 0.00 81 1011.4
20260503235538 58 289 3.0 0.0 0.00 0.00 0.00 82 1011.3
20260503235039 58 214 3.0 0.0 0.00 0.00 0.00 83 1011.3
20260503234538 58 286 3.0 0.0 0.00 0.00 0.00 83 1011.3
20260503234039 58 206 3.0 0.0 0.00 0.00 0.00 83 1011.3
20260503233538 58 207 3.0 0.0 0.00 0.00 0.00 83 1011.3
20260503233042 58 234 2.0 0.0 0.00 0.00 0.00 84 1011.3
20260503232538 58 242 2.0 0.0 0.00 0.00 0.00 86 1011.8
20260503232038 58 201 3.0 0.0 0.00 0.00 0.00 86 1011.8
20260503231538 58 178 2.0 0.0 0.00 0.00 0.00 85 1011.8
20260503231038 58 291 2.0 0.0 0.00 0.00 0.00 85 1011.9
20260503230537 58 251 2.0 0.0 0.00 0.00 0.00 86 1011.9
20260503230045 58 169 2.0 0.0 0.00 0.00 0.00 86 1011.9
20260503225536 58 229 3.0 0.0 0.00 0.00 0.00 85 1011.9
20260503225036 58 261 3.0 0.0 0.00 0.00 0.00 84 1011.9
20260503224536 58 264 3.0 0.0 0.00 0.00 0.00 82 1011.9
20260503224036 58 171 3.0 0.0 0.00 0.00 0.00 82 1012.1
20260503223535 58 161 4.0 0.0 0.00 0.00 0.00 81 1012.1
20260503223036 58 160 4.0 0.0 0.00 0.00 0.00 80 1012.1
20260503222535 58 207 4.0 0.0 0.00 0.00 0.00 80 1012.2
20260503222036 58 146 3.0 0.0 0.00 0.00 0.00 80 1012.2
20260503221535 58 163 4.0 0.0 0.00 0.00 0.00 80 1012.2
20260503221035 58 205 4.0 0.0 0.00 0.00 0.00 80 1012.3
20260503220535 59 199 4.0 0.0 0.00 0.00 0.00 79 1012.3
20260503220043 59 164 4.0 0.0 0.00 0.00 0.00 79 1012.3
20260503215535 59 144 4.0 0.0 0.00 0.00 0.00 77 1012.4
20260503215035 59 201 3.0 0.0 0.00 0.00 0.00 76 1012.4
20260503214534 59 142 3.0 0.0 0.00 0.00 0.00 76 1012.4
20260503214040 59 188 3.0 0.0 0.00 0.00 0.00 77 1012.4
20260503213536 59 149 3.0 0.0 0.00 0.00 0.00 77 1012.4
20260503213034 59 209 3.0 0.0 0.00 0.00 0.00 77 1012.4
20260503212536 59 182 3.0 0.0 0.00 0.00 0.00 76 1012.4
20260503212035 59 175 3.0 0.0 0.00 0.00 0.00 76 1012.4
20260503211535 60 163 3.0 0.0 0.00 0.00 0.00 75 1012.4
20260503211033 60 198 3.0 0.0 0.00 0.00 0.00 74 1012.5
20260503210533 59 360 3.0 0.0 0.00 0.00 0.00 74 1012.5
20260503210034 59 189 5.0 0.0 0.00 0.00 0.00 75 1012.5
20260503205535 60 196 5.0 0.0 0.00 0.00 0.00 71 1012.4
20260503205033 60 173 4.0 0.0 0.00 0.00 0.00 74 1012.4
20260503204532 59 196 5.0 0.0 0.00 0.00 0.00 74 1012.4
20260503204032 60 226 6.0 0.0 0.00 0.00 0.00 72 1012.4
20260503203533 60 215 5.0 0.0 0.00 0.00 0.00 71 1012.4
20260503203046 60 175 4.0 0.0 0.00 0.00 0.00 69 1012.4
20260503202537 61 214 3.0 0.0 0.00 0.00 0.00 67 1012.4
20260503202034 61 203 4.0 0.0 0.00 0.00 0.00 67 1012.4
20260503201534 61 197 4.0 0.0 0.00 0.00 0.00 65 1012.4
20260503201032 61 157 4.0 0.0 0.00 0.00 0.00 67 1012.7
20260503200532 61 213 3.0 0.0 0.00 0.00 0.00 65 1012.7
20260503200032 61 173 3.0 0.0 0.00 0.00 0.00 66 1012.7
20260503195530 61 228 4.0 0.0 0.00 0.00 0.00 67 1012.8
20260503195031 61 136 4.0 0.0 0.00 0.00 0.00 65 1012.8
20260503194539 61 162 3.0 0.0 0.00 0.00 0.00 66 1012.8
20260503194029 61 182 4.0 0.0 0.00 0.00 0.00 68 1012.9
20260503193530 60 213 4.0 0.0 0.00 0.00 0.00 67 1012.9
20260503193027 60 164 3.0 0.0 0.00 0.00 0.00 67 1012.9
20260503192525 60 184 3.0 0.0 0.00 0.00 0.00 70 1012.9
20260503192025 60 182 4.0 0.0 0.00 0.00 0.00 71 1012.9
20260503191524 59 360 4.0 0.0 0.00 0.00 0.00 74 1012.9
20260503191024 59 169 5.0 0.0 0.00 0.00 0.00 75 1013.1
20260503190524 59 198 4.0 0.0 0.00 0.00 0.00 73 1013.1
20260503190035 59 172 4.0 0.0 0.00 0.00 0.00 74 1013.1
20260503185524 59 207 4.0 0.0 0.00 0.00 0.00 74 1013.2
20260503185022 59 196 4.0 0.0 0.00 0.00 0.00 73 1013.2
20260503184524 59 182 3.0 0.0 0.00 0.00 0.00 75 1013.2
20260503184022 59 123 3.0 0.0 0.00 0.00 0.00 75 1013.4
20260503183521 59 188 4.0 0.0 0.00 0.00 0.00 76 1013.4
20260503183021 59 180 4.0 0.0 0.00 0.00 0.00 74 1013.4
20260503182520 59 171 3.0 0.0 0.00 0.00 0.00 74 1013.4
20260503182020 58 223 3.0 0.0 0.00 0.00 0.00 75 1013.4
20260503181519 58 253 3.0 0.0 0.00 0.00 0.00 76 1013.4
20260503181018 58 175 3.0 0.0 0.00 0.00 0.00 77 1013.4
20260503180518 58 213 3.0 0.0 0.00 0.00 0.00 78 1013.4
20260503180018 58 186 3.0 0.0 0.00 0.00 0.00 77 1013.4
20260503175517 57 223 3.0 0.0 0.00 0.00 0.00 77 1013.4
20260503175016 57 174 3.0 0.0 0.00 0.00 0.00 76 1013.4
20260503174514 57 200 4.0 0.0 0.00 0.00 0.00 77 1013.4
20260503174013 57 231 4.0 0.0 0.00 0.00 0.00 78 1013.4
20260503173513 56 261 2.0 0.0 0.00 0.00 0.00 80 1013.4
20260503173012 56 265 2.0 0.0 0.00 0.00 0.00 84 1013.4
20260503172514 56 192 3.0 0.0 0.00 0.00 0.00 82 1013.2
20260503172012 56 182 3.0 0.0 0.00 0.00 0.00 84 1013.2
20260503171511 56 184 2.0 0.0 0.00 0.00 0.00 84 1013.2
20260503171011 56 178 3.0 0.0 0.00 0.00 0.00 83 1013.0
20260503170511 56 216 3.0 0.0 0.00 0.00 0.00 83 1013.0
20260503150556 54 146 1.0 0.0 0.00 0.00 0.00 92 1012.5
20260503131049 53 246 2.0 0.0 0.00 0.00 0.00 94 1011.3
20260503130549 53 275 1.0 0.0 0.00 0.00 0.00 94 1011.3
20260503110543 53 298 0.0 0.0 0.00 0.00 0.00 93 1011.2
20260503081541 53 171 3.0 0.0 0.00 0.00 0.00 95 1011.8
20260503081036 53 219 3.0 0.0 0.00 0.00 0.00 95 1011.9
20260503080535 53 171 2.0 0.0 0.00 0.00 0.00 95 1011.9
20260503072532 53 198 2.0 0.0 0.00 0.00 0.00 95 1011.7
20260503072031 53 162 2.0 0.0 0.00 0.00 0.00 95 1011.7
20260503071532 53 188 2.0 0.0 0.00 0.00 0.00 95 1011.7
20260503071031 53 169 2.0 0.0 0.00 0.00 0.00 95 1011.6
20260503070530 53 171 3.0 0.0 0.00 0.00 0.00 95 1011.6
20260503055026 53 173 1.0 0.0 0.00 0.00 0.00 95 1011.4
20260503054543 53 169 1.0 0.0 0.00 0.00 0.00 95 1011.4
20260503054026 53 184 2.0 0.0 0.00 0.00 0.00 95 1011.4
20260503053526 53 162 2.0 0.0 0.00 0.00 0.00 95 1011.4
20260503053036 53 299 1.0 0.0 0.00 0.00 0.00 95 1011.4
20260503052529 53 177 2.0 0.0 0.00 0.00 0.00 95 1011.4
20260503052025 53 219 2.0 0.0 0.00 0.00 0.00 95 1011.4
20260503051525 53 210 2.0 0.0 0.00 0.00 0.00 95 1011.4
20260503051024 53 202 2.0 0.0 0.00 0.00 0.00 95 1011.5
20260503050524 53 192 2.0 0.0 0.00 0.00 0.00 95 1011.5